Location: Malvern Link
(52.1333°N, 2.3000°W)
Time: 16:21:25
(UTC+00:00)

SPROUT - Pass Details

Date: 02 July 2022
Orbit: 588 x 598 km, 97.9° (Epoch: 09 August)

Event Time Altitude Azimuth Distance (km) Brightness Sun altitude
Exits shadow 02:07:35 11° 237° (WSW) 1,824 ? -10.8°
Maximum altitude 02:09:46 16° 271° (W) 1,568 ? -10.6°
Drops below altitude 10° 02:12:23 10° 310° (NW) 1,928 ? -10.4°
Sets 02:15:19 0° 332° (NNW) 2,836 ? -10.2°
